Date,TemperatureHighF,TemperatureAvgF,TemperatureLowF,DewpointHighF,DewpointAvgF,DewpointLowF,HumidityHigh,HumidityAvg,HumidityLow,PressureMaxIn,PressureMinIn,WindSpeedMaxMPH,WindSpeedAvgMPH,GustSpeedMaxMPH,PrecipitationSumIn
2013-1-1,31,24,20,22,12,3,72,61,47,30.11,29.93,13,4,16,0.00
2013-1-2,30,24,21,21,16,13,84,72,63,30.26,30.03,12,4,15,0.01
2013-1-3,30,24,16,24,19,13,91,83,71,30.24,30.00,14,4,21,0.00
2013-1-4,32,30,28,23,22,20,76,70,65,30.06,29.92,26,7,27,0.00
2013-1-5,37,33,30,30,26,23,89,76,61,30.32,30.06,17,5,19,0.05
2013-1-6,37,35,27,33,31,21,92,84,76,30.19,29.90,16,5,20,0.11
2013-1-7,35,28,21,29,22,16,83,78,70,30.45,30.18,22,6,31,0.01
2013-1-8,38,34,32,32,28,25,90,77,66,30.34,30.16,19,4,25,0.01
2013-1-9,45,40,33,36,31,26,95,73,52,30.37,29.96,26,6,33,0.01
2013-1-10,43,39,37,32,28,24,80,65,54,30.63,30.38,15,2,17,0.00
2013-1-11,44,40,38,44,37,32,98,89,77,30.43,29.90,8,2,14,0.13
2013-1-12,54,48,42,50,46,42,99,93,82,30.00,29.91,12,2,15,0.00
2013-1-13,58,50,44,54,48,42,99,93,77,29.96,29.75,16,2,17,1.06
2013-1-14,43,33,28,42,24,17,95,71,58,30.43,29.82,18,4,21,0.09
2013-1-15,33,30,26,20,17,14,76,59,45,30.46,30.23,10,2,14,0.00
2013-1-16,38,33,29,26,22,17,72,63,53,30.21,29.79,19,4,22,0.00
2013-1-17,36,22,13,32,12,3,81,63,48,30.28,29.85,22,5,22,0.00
2013-1-18,34,22,12,24,12,5,89,66,49,30.49,30.04,21,6,26,0.00
2013-1-19,47,41,34,36,30,24,75,64,57,30.03,29.52,19,8,31,0.00
2013-1-20,47,28,18,35,18,6,89,65,47,30.13,29.42,22,8,33,0.02
2013-1-21,22,18,12,9,5,-2,69,56,44,30.11,29.91,18,5,23,0.00
2013-1-22,12,8,5,4,0,-5,81,67,57,30.27,29.95,18,4,22,0.00
2013-1-23,15,8,-1,4,-3,-13,72,61,53,30.33,30.17,9,2,15,0.00
2013-1-24,14,10,5,4,-2,-6,73,60,50,30.62,30.17,14,4,18,0.00
2013-1-25,18,14,8,14,8,-1,86,78,66,30.60,30.16,8,2,8,0.00
2013-1-26,26,20,13,16,12,8,82,72,57,30.48,30.17,7,2,11,0.06
2013-1-27,30,23,14,21,15,9,82,73,62,30.62,30.38,8,2,11,0.00
2013-1-28,39,34,29,38,32,20,99,92,67,30.39,29.87,8,2,14,0.27
2013-1-29,43,36,34,43,36,32,99,98,96,30.08,29.69,10,2,14,0.49
2013-1-30,56,50,43,54,48,43,100,93,78,29.68,29.00,16,4,19,0.16
2013-1-31,49,28,21,47,20,9,94,72,52,29.75,29.01,24,9,34,0.06
2013-2-1,22,18,15,13,8,2,74,62,46,30.23,29.75,20,5,22,0.00
2013-2-2,23,19,15,14,9,4,79,66,57,30.23,30.01,16,4,22,0.00
2013-2-3,24,19,13,15,9,6,81,67,49,30.05,29.86,12,3,16,0.00
2013-2-4,32,18,12,14,9,2,80,66,51,30.02,29.91,17,4,17,0.00
2013-2-5,26,20,11,19,11,2,84,69,56,30.02,29.90,14,3,17,0.00
2013-2-6,27,23,18,23,11,1,87,59,35,30.43,29.91,12,4,18,0.00
2013-2-7,28,24,19,22,18,9,94,80,64,30.44,30.17,16,5,18,0.00
2013-2-8,22,18,15,20,16,13,94,91,88,30.25,29.93,16,6,20,0.00
2013-2-9,25,18,10,20,13,6,88,81,69,30.48,30.25,12,2,15,0.11
2013-2-10,36,26,13,32,20,10,90,80,61,30.45,29.97,11,2,15,0.04
2013-2-11,46,38,34,42,33,27,98,83,58,29.97,29.56,22,6,30,0.33
2013-2-12,36,34,31,30,25,21,83,70,56,29.99,29.70,19,6,24,0.00
2013-2-13,35,32,28,24,21,18,76,65,54,29.93,29.78,9,2,11,0.00
2013-2-14,37,32,27,35,28,20,96,85,73,29.92,29.75,13,3,19,0.19
2013-2-15,37,30,22,34,21,11,91,68,47,30.12,29.74,17,7,25,0.00
2013-2-16,28,22,18,22,17,11,89,81,70,30.13,30.01,9,2,11,0.00
2013-2-17,18,12,5,11,2,-4,74,64,52,30.30,30.03,17,5,17,0.00
2013-2-18,34,21,9,27,12,1,81,70,56,30.34,29.91,10,3,16,0.01
2013-2-19,40,34,24,38,28,17,96,81,67,29.91,29.55,19,7,29,0.33
2013-2-20,24,22,19,20,12,10,85,66,56,30.14,29.76,16,6,23,0.00
2013-2-21,26,18,9,15,8,0,76,67,56,30.49,30.12,12,4,23,0.00
2013-2-22,34,28,17,33,24,10,96,86,74,30.46,30.00,14,4,28,0.00
2013-2-23,37,35,32,34,30,23,96,81,57,30.00,29.88,13,3,18,0.04
2013-2-24,36,32,29,30,26,25,92,78,71,30.13,29.88,11,3,14,0.02
2013-2-25,37,35,33,28,27,24,79,72,61,30.27,30.13,7,2,9,0.00
2013-2-26,38,36,32,33,29,26,96,77,72,30.26,29.82,19,4,22,0.16
2013-2-27,35,34,32,34,33,32,98,97,96,29.82,29.61,16,4,18,0.68
2013-2-28,38,34,32,34,32,26,98,89,75,29.82,29.56,16,3,20,0.23
2013-3-1,32,27,21,26,19,14,80,72,61,30.05,29.82,20,7,21,0.00
2013-3-2,28,23,17,18,14,10,74,69,62,30.05,29.98,13,5,16,0.00
2013-3-3,26,22,18,18,14,10,80,70,62,30.00,29.93,11,5,18,0.00
2013-3-4,32,24,19,20,15,13,79,69,56,30.14,29.99,12,4,16,0.00
2013-3-5,32,27,21,26,19,15,82,73,57,30.17,30.03,16,3,17,0.00
2013-3-6,41,36,30,32,28,24,83,74,59,30.22,30.03,11,3,13,0.00
2013-3-7,41,36,34,34,31,27,93,83,57,30.35,30.21,5,1,7,0.06
2013-3-8,44,38,34,32,29,23,91,73,49,30.46,30.35,9,3,13,0.00
2013-3-9,42,36,30,33,29,25,90,76,53,30.46,30.22,8,2,10,0.00
2013-3-10,55,45,37,36,32,29,83,63,42,30.23,29.97,6,1,9,0.00
2013-3-11,49,46,44,43,38,33,91,74,58,29.97,29.63,11,1,14,0.19
2013-3-12,45,39,34,43,34,28,93,81,71,29.91,29.66,19,6,22,0.03
2013-3-13,36,32,22,31,24,8,89,73,43,30.04,29.86,20,4,23,0.02
2013-3-14,33,25,19,12,7,-6,74,49,19,30.15,30.04,21,6,23,0.00
2013-3-15,42,33,26,28,20,12,76,60,39,30.10,29.76,17,5,21,0.00
2013-3-16,30,25,22,18,14,8,81,62,46,30.05,29.92,7,2,10,0.01
2013-3-17,30,25,22,16,9,2,73,52,33,30.41,30.04,14,3,17,0.00
2013-3-18,33,28,20,31,18,5,97,67,47,30.40,29.70,17,5,27,0.00
2013-3-19,36,31,25,36,26,17,98,82,66,29.86,29.63,19,6,26,0.16
2013-3-20,32,28,24,22,18,11,84,66,44,29.89,29.83,16,5,19,0.01
2013-3-21,32,26,20,27,18,14,90,72,62,29.86,29.74,13,5,17,0.00
2013-3-22,37,31,26,25,22,18,82,70,55,29.98,29.79,14,5,17,0.02
2013-3-23,41,34,30,26,23,19,84,64,42,30.08,29.96,16,4,16,0.00
2013-3-24,41,33,27,25,22,17,81,64,43,30.08,29.80,9,2,12,0.00
2013-3-25,43,38,33,28,25,23,71,60,48,29.80,29.69,11,4,16,0.00
2013-3-26,50,42,37,28,26,18,65,53,30,29.99,29.79,12,4,17,0.00
2013-3-27,46,39,35,34,29,24,87,68,49,30.11,29.95,18,4,20,0.00
2013-3-28,46,40,35,32,29,25,83,66,46,30.24,30.10,13,3,14,0.00
2013-3-29,54,44,38,31,26,13,71,51,27,30.24,30.15,12,3,15,0.00
2013-3-30,50,42,34,30,25,20,71,52,31,30.24,30.03,9,2,13,0.00
2013-3-31,52,44,39,41,32,27,88,63,41,30.03,29.60,14,2,17,0.02
2013-4-1,44,34,26,42,21,10,91,60,38,30.01,29.58,24,7,31,0.01
2013-4-2,35,28,24,23,15,8,74,58,35,30.17,30.00,23,6,32,0.00
2013-4-3,38,31,24,19,14,5,70,51,27,30.44,30.17,14,5,20,0.00
2013-4-4,47,38,28,24,17,3,66,45,17,30.41,29.92,17,6,21,0.00
2013-4-5,44,38,31,32,21,8,70,51,23,30.23,29.92,19,5,22,0.00
2013-4-6,40,34,27,28,22,18,71,62,44,30.36,30.01,10,2,12,0.00
2013-4-7,61,47,37,45,34,29,78,62,50,30.07,29.66,34,6,34,0.01
2013-4-8,46,42,40,40,34,30,94,74,63,30.13,29.80,14,3,18,0.42
2013-4-9,54,47,41,48,43,39,98,85,62,30.14,29.81,17,2,20,0.56
2013-4-10,47,43,41,46,40,35,97,90,77,30.17,29.92,9,2,13,0.50
2013-4-11,41,35,30,37,27,20,92,73,54,30.20,29.97,11,4,23,0.08
2013-4-12,43,37,33,41,34,27,97,91,73,29.99,29.57,27,6,27,0.92
2013-4-13,44,40,38,38,35,31,91,81,64,29.94,29.76,14,5,18,0.07
2013-4-14,47,40,34,33,29,26,79,65,44,30.21,29.94,13,3,19,0.00
2013-4-15,52,45,38,42,36,30,79,70,61,30.18,30.02,11,3,15,0.00
2013-4-16,59,53,46,52,43,30,87,69,41,30.27,29.94,19,5,22,0.02
2013-4-17,49,45,38,33,31,29,73,59,46,30.41,30.26,10,3,12,0.01
2013-4-18,69,53,40,58,45,33,92,74,62,30.29,29.63,15,4,22,0.17
2013-4-19,61,54,43,57,48,29,95,80,52,29.71,29.32,22,5,27,0.11
2013-4-20,43,36,31,34,23,15,86,60,43,30.46,29.70,24,7,28,0.00
2013-4-21,41,35,30,26,22,17,70,59,43,30.74,30.46,9,2,15,0.00
2013-4-22,51,44,36,33,30,26,78,60,43,30.64,30.33,12,4,15,0.00
2013-4-23,50,46,40,39,34,31,75,62,54,30.33,29.91,10,3,14,0.00
2013-4-24,53,47,38,49,40,31,96,78,60,30.04,29.65,16,3,24,0.56
2013-4-25,52,42,35,38,34,30,88,74,46,30.33,30.04,18,4,26,0.04
2013-4-26,54,46,36,37,30,19,87,57,29,30.50,30.33,12,3,15,0.00
2013-4-27,60,49,42,36,32,27,70,52,38,30.44,30.24,9,2,12,0.00
2013-4-28,65,54,48,49,40,33,94,60,41,30.24,30.00,22,3,27,0.18
2013-4-29,53,49,46,52,48,45,98,94,80,30.04,29.96,6,2,8,0.30
2013-4-30,67,57,51,56,51,48,95,82,65,30.19,30.04,9,1,15,0.01
2013-5-1,69,62,54,53,46,30,82,60,26,30.34,30.19,8,2,11,0.00
2013-5-2,71,62,51,44,36,31,71,42,25,30.41,30.25,9,2,12,0.00
2013-5-3,69,62,54,43,40,36,62,44,30,30.30,30.21,11,2,14,0.00
2013-5-4,67,61,51,45,38,26,74,46,22,30.28,30.17,9,2,13,0.00
2013-5-5,75,65,52,45,40,35,65,41,25,30.21,30.08,10,2,11,0.00
2013-5-6,69,62,53,44,34,20,65,37,17,30.15,30.04,9,1,9,0.00
2013-5-7,75,63,52,40,34,24,60,36,15,30.13,30.02,8,1,10,0.00
2013-5-8,71,63,59,58,50,38,85,64,44,30.05,29.95,10,1,11,0.00
2013-5-9,71,65,61,61,56,47,93,75,56,29.95,29.89,8,1,10,0.04
2013-5-10,61,55,51,56,51,46,98,88,59,29.94,29.68,9,1,9,0.92
2013-5-11,58,52,46,56,46,41,98,80,64,29.78,29.68,11,4,20,0.00
2013-5-12,50,42,37,47,33,26,90,70,42,29.95,29.69,20,6,29,0.06
2013-5-13,52,44,36,31,26,15,79,53,27,30.16,29.95,15,4,21,0.00
2013-5-14,52,46,40,38,33,26,74,61,51,30.17,29.94,8,2,10,0.00
2013-5-15,77,55,43,52,42,36,90,65,27,29.94,29.53,17,2,31,0.05
2013-5-16,75,63,50,43,39,28,74,43,19,30.04,29.72,27,4,27,0.00
2013-5-17,63,56,47,42,38,31,72,53,33,30.24,30.03,11,2,12,0.00
2013-5-18,65,59,49,42,37,32,78,46,32,30.28,30.15,11,1,14,0.00
2013-5-19,71,61,53,57,51,35,86,69,40,30.15,29.98,8,1,10,0.00
2013-5-20,76,66,56,64,59,53,93,79,62,30.03,29.86,8,1,17,0.19
2013-5-21,71,64,58,64,61,56,99,89,72,29.89,29.75,5,1,14,0.42
2013-5-22,73,62,56,63,58,53,97,88,67,29.79,29.62,6,1,7,0.04
2013-5-23,76,59,42,61,52,38,92,79,52,29.99,29.66,23,4,24,0.03
2013-5-24,54,46,40,38,34,30,88,64,46,30.29,29.99,18,6,25,0.02
2013-5-25,60,51,41,36,34,28,78,54,36,30.31,30.23,17,5,19,0.00
2013-5-26,64,55,44,36,32,25,71,45,25,30.27,30.22,14,4,18,0.00
2013-5-27,68,58,45,40,34,26,70,43,21,30.29,30.13,9,2,12,0.00
2013-5-28,57,53,49,56,46,35,99,80,44,30.15,29.92,5,0,11,0.70
2013-5-29,82,68,56,69,63,56,99,86,57,29.99,29.82,12,1,15,1.32
2013-5-30,82,73,62,67,64,61,96,76,57,30.09,29.99,8,1,14,0.00
2013-5-31,85,73,63,67,64,60,91,74,52,30.03,29.90,11,2,25,0.09
2013-6-1,80,70,63,69,64,32,97,83,65,29.91,29.73,12,2,17,0.02
2013-6-2,72,64,52,66,60,43,99,85,66,29.92,29.64,11,3,20,0.35
2013-6-3,65,56,46,43,40,36,82,57,35,30.05,29.92,12,2,13,0.00
2013-6-4,70,60,48,43,35,24,70,43,20,30.19,30.05,13,2,17,0.00
2013-6-5,64,60,56,42,38,30,55,45,33,30.26,30.10,9,1,13,0.00
2013-6-6,60,55,52,53,47,39,98,76,49,30.12,29.87,12,2,13,0.51
2013-6-7,62,58,54,56,55,53,98,90,79,29.90,29.85,7,1,10,0.02
2013-6-8,67,62,58,58,55,51,89,78,63,30.07,29.86,7,1,9,0.00
2013-6-9,71,64,54,54,50,48,89,62,45,30.19,30.06,8,1,10,0.00
2013-6-10,63,59,57,59,55,49,99,87,62,30.12,29.70,8,2,16,0.70
2013-6-11,76,66,59,62,59,55,99,80,51,29.86,29.66,11,2,15,0.18
2013-6-12,72,65,58,58,54,47,93,68,48,29.94,29.75,9,1,11,0.00
2013-6-13,71,63,59,60,56,49,96,80,61,29.82,29.59,10,1,13,0.20
2013-6-14,76,64,58,59,56,42,97,77,46,30.00,29.80,16,4,17,0.01
2013-6-15,76,67,55,58,45,39,66,47,28,30.06,29.92,10,3,13,0.00
2013-6-16,80,69,60,67,60,49,98,75,51,29.93,29.69,12,1,13,0.65
2013-6-17,78,70,62,62,57,53,87,65,47,29.94,29.78,11,1,13,0.00
2013-6-18,68,63,55,54,50,44,89,65,48,30.06,29.91,14,2,14,0.01
2013-6-19,66,60,55,47,42,36,66,51,36,30.20,30.06,10,2,11,0.00
2013-6-20,70,62,52,52,48,40,83,60,38,30.27,30.20,8,1,9,0.00
2013-6-21,77,68,57,57,50,42,82,56,30,30.28,30.16,9,1,9,0.00
2013-6-22,79,69,62,73,62,52,96,79,57,30.16,29.98,7,0,8,0.36
2013-6-23,88,77,65,72,67,62,96,74,47,30.05,29.93,13,1,14,0.00
2013-6-24,90,80,70,72,68,64,87,68,42,30.00,29.86,6,1,13,0.00
2013-6-25,84,75,70,72,68,65,94,80,64,29.91,29.75,7,1,10,0.14
2013-6-26,86,76,68,70,68,65,93,76,53,29.80,29.74,9,2,12,0.00
2013-6-27,77,72,67,68,66,63,93,82,72,29.78,29.64,5,0,9,0.00
2013-6-28,69,66,63,67,64,62,97,92,86,29.65,29.51,6,0,9,0.76
2013-6-29,74,67,63,63,61,58,96,81,61,29.71,29.51,11,2,15,0.00
2013-6-30,75,69,62,61,58,50,88,71,49,29.94,29.70,8,2,12,0.00
2013-7-1,70,70,70,49,49,49,48,48,48,29.95,29.94,2,0,5,0.00
2013-7-3,79,71,64,69,65,62,93,83,68,30.17,30.08,8,1,8,0.00
2013-7-4,80,74,68,72,69,66,98,86,63,30.16,30.07,8,1,18,0.24
2013-7-5,76,73,70,72,70,68,96,90,79,30.12,30.03,4,0,6,0.35
2013-7-6,84,75,67,71,68,64,97,80,53,30.13,30.00,5,1,11,0.00
2013-7-7,79,74,71,72,70,69,98,90,74,30.03,29.91,13,2,16,1.20
2013-7-8,84,74,69,72,69,65,98,87,57,30.03,29.95,8,1,16,1.80
2013-7-9,76,72,69,72,70,68,99,92,82,30.02,29.87,6,1,10,0.01
2013-7-10,90,77,68,73,68,55,98,76,45,29.87,29.67,13,3,16,0.05
2013-7-11,77,69,62,62,58,54,77,67,53,30.03,29.83,13,3,14,0.00
2013-7-12,74,69,64,64,59,56,78,70,58,30.18,30.03,11,1,12,0.00
2013-7-13,81,72,63,64,60,56,83,67,45,30.25,30.18,8,1,12,0.00
2013-7-14,84,76,67,71,68,64,89,76,57,30.30,30.23,7,1,9,0.00
2013-7-15,88,81,73,71,68,64,87,66,47,30.29,30.21,7,1,9,0.00
2013-7-16,90,83,76,74,69,64,77,63,49,30.27,30.17,7,1,9,0.00
2013-7-17,96,87,78,76,73,70,82,64,45,30.19,30.04,10,1,13,0.00
2013-7-18,93,86,79,76,72,67,80,63,45,30.07,29.88,6,0,11,0.03
2013-7-19,92,82,70,74,71,66,94,72,48,29.88,29.63,13,3,24,0.35
2013-7-20,87,77,72,70,61,53,93,62,33,29.89,29.64,9,2,12,0.07
2013-7-21,72,68,63,60,56,51,80,66,56,30.04,29.89,10,1,12,0.00
2013-7-22,75,69,63,65,61,49,87,75,42,30.00,29.77,6,0,10,0.00
2013-7-23,81,72,63,68,62,53,83,72,57,29.77,29.58,12,2,18,0.00
2013-7-24,72,64,57,56,49,44,77,59,39,30.05,29.72,14,4,17,0.00
2013-7-25,72,65,57,57,53,47,83,65,43,30.14,30.05,8,2,10,0.00
2013-7-26,74,67,59,61,55,43,86,66,37,30.13,29.99,10,1,13,0.00
2013-7-27,73,68,64,67,64,58,96,87,77,29.99,29.76,10,0,12,0.61
2013-7-28,73,67,61,67,55,48,96,68,44,29.95,29.74,12,3,16,0.03
2013-7-29,71,64,59,59,56,53,88,75,61,30.14,29.95,8,1,10,0.02
2013-7-30,74,67,58,60,58,54,91,72,57,30.20,30.13,6,1,10,0.00
2013-7-31,75,67,60,65,60,55,95,78,53,30.15,29.93,7,1,7,0.35
2013-8-1,80,68,32,65,60,32,98,79,44,29.92,29.77,9,1,17,0.61
2013-8-2,78,68,60,65,59,55,92,74,54,29.88,29.78,9,1,15,0.46
2013-8-3,78,69,60,60,55,48,87,64,37,29.95,29.82,10,2,15,0.00
2013-8-4,74,66,59,55,51,42,83,62,35,30.09,29.95,15,3,20,0.00
2013-8-5,75,66,57,56,51,43,79,60,35,30.11,30.00,10,2,13,0.00
2013-8-6,75,68,61,62,58,54,82,72,58,30.04,29.96,10,1,14,0.00
2013-8-7,79,72,66,69,66,62,92,82,68,29.96,29.80,8,2,13,0.03
2013-8-8,80,74,69,68,64,57,90,72,57,29.96,29.87,10,2,14,0.00
2013-8-9,81,73,66,62,56,49,72,56,37,29.93,29.85,11,3,14,0.00
2013-8-10,76,68,60,58,50,46,67,53,36,30.10,29.91,13,2,14,0.00
2013-8-11,73,67,58,60,53,48,73,62,46,30.13,30.01,9,1,10,0.00
2013-8-12,74,68,60,65,59,53,89,74,62,30.05,29.82,6,1,9,0.00
2013-8-13,72,65,56,64,55,46,94,71,46,29.89,29.75,15,3,19,0.00
2013-8-14,72,63,55,52,47,40,82,58,33,30.09,29.87,14,4,19,0.00
2013-8-15,76,66,56,55,49,46,76,56,37,30.13,30.05,9,1,14,0.00
2013-8-16,77,67,57,58,54,50,79,63,46,30.20,30.11,9,1,11,0.00
2013-8-17,79,69,60,61,56,53,80,65,46,30.29,30.20,8,1,8,0.00
2013-8-18,77,69,61,66,60,56,89,74,55,30.24,30.10,8,1,9,0.00
2013-8-19,82,73,63,64,59,54,92,64,40,30.11,30.00,12,1,12,0.00
2013-8-20,84,75,64,64,61,56,86,62,44,30.10,30.03,12,1,12,0.00
2013-8-21,86,76,67,67,64,61,87,68,50,30.13,29.97,7,1,9,0.00
2013-8-22,84,77,68,68,60,48,81,58,31,30.00,29.90,14,2,19,0.00
2013-8-23,74,68,62,57,54,49,75,61,45,30.21,30.00,9,2,11,0.00
2013-8-24,75,67,59,60,56,49,88,68,40,30.36,30.21,11,1,11,0.00
2013-8-25,80,70,59,67,61,55,89,73,48,30.33,30.08,9,1,13,0.06
2013-8-26,77,71,68,72,68,64,96,91,81,30.10,29.91,13,0,13,0.66
2013-8-27,81,73,67,71,69,67,98,87,66,29.93,29.85,8,0,8,0.20
2013-8-28,82,75,70,72,70,67,99,85,65,29.96,29.84,8,0,8,0.04
2013-8-29,82,76,72,70,69,67,90,79,65,30.05,29.96,7,1,8,0.00
2013-8-30,84,76,72,71,68,67,97,78,58,29.98,29.69,8,1,12,0.03
2013-8-31,77,73,70,70,69,68,93,87,76,29.85,29.68,6,0,8,0.00
2013-9-1,76,72,32,68,67,32,93,84,67,29.85,29.74,10,1,12,0.00
2013-9-2,77,71,64,71,64,54,89,79,59,29.78,29.68,11,1,15,0.04
2013-9-3,71,66,63,58,55,50,74,66,53,29.94,29.78,8,2,13,0.00
2013-9-4,79,69,61,62,55,50,80,61,47,30.01,29.92,11,2,16,0.06
2013-9-5,64,59,53,54,43,33,83,57,31,30.26,30.00,12,3,16,0.00
2013-9-6,69,60,48,57,46,40,79,62,38,30.31,30.08,9,2,12,0.00
2013-9-7,68,64,60,66,59,50,97,85,63,30.08,29.87,12,1,14,0.52
2013-9-8,68,64,57,66,53,45,96,69,45,30.12,29.86,10,2,15,0.00
2013-9-9,68,60,52,60,52,42,89,76,42,30.14,29.94,5,1,8,0.00
2013-9-10,88,76,64,74,68,60,96,78,60,29.96,29.86,9,2,13,0.00
2013-9-11,87,76,70,71,68,66,94,76,57,29.98,29.86,9,1,14,0.33
2013-9-12,76,69,62,69,63,55,97,83,53,29.90,29.73,10,2,18,0.09
2013-9-13,62,54,51,55,45,40,83,71,64,30.09,29.79,14,4,17,0.00
2013-9-14,62,54,44,50,42,34,83,65,36,30.17,30.07,9,1,11,0.00
2013-9-15,67,59,51,55,50,46,89,72,57,30.14,30.05,8,1,11,0.07
2013-9-16,58,54,48,53,45,38,92,72,47,30.41,30.07,10,3,13,0.00
2013-9-17,60,52,44,48,44,37,87,72,56,30.50,30.30,8,1,11,0.00
2013-9-18,67,57,46,55,50,44,93,78,44,30.30,30.11,7,1,9,0.00
2013-9-19,72,61,51,62,57,49,97,88,70,30.12,30.00,5,1,10,0.00
2013-9-20,74,67,60,68,64,60,99,90,75,30.01,29.72,10,1,10,0.34
2013-9-21,69,64,61,68,64,60,99,98,94,29.72,29.62,6,1,12,0.62
2013-9-22,56,52,48,48,42,39,91,72,54,30.08,29.74,6,2,15,0.00
2013-9-23,62,53,47,44,42,37,86,66,43,30.19,30.08,5,1,11,0.00
2013-9-24,63,54,44,51,45,40,89,74,46,30.20,30.04,4,1,9,0.00
2013-9-25,67,57,47,50,47,45,92,71,44,30.05,29.97,4,1,8,0.00
2013-9-26,69,59,50,54,50,47,90,73,47,30.17,30.02,4,1,9,0.00
2013-9-27,65,59,52,55,53,49,95,81,59,30.30,30.17,4,1,11,0.00
2013-9-28,66,60,53,60,56,51,96,88,75,30.31,30.14,4,1,13,0.00
2013-9-29,69,62,56,61,57,54,95,84,69,30.14,29.99,9,1,11,0.00
2013-9-30,67,64,62,63,62,58,97,92,83,29.99,29.93,7,1,9,0.05
2013-10-1,72,63,54,63,58,53,97,84,62,30.03,29.88,11,1,11,0.00
2013-10-2,78,69,60,62,52,37,89,59,26,30.08,29.89,8,1,14,0.00
2013-10-3,69,62,50,58,44,34,81,55,29,30.14,30.02,6,1,9,0.00
2013-10-4,64,61,60,61,58,55,98,91,80,30.09,29.98,11,0,11,0.50
2013-10-5,62,60,56,56,54,52,93,80,69,30.13,30.03,7,1,14,0.09
2013-10-6,66,61,58,66,59,52,99,93,71,30.03,29.65,10,1,14,0.17
2013-10-7,67,58,52,66,52,41,98,80,49,30.05,29.61,14,3,20,0.32
2013-10-8,62,54,46,50,46,42,91,76,51,30.35,30.05,7,1,12,0.00
2013-10-9,64,55,46,54,49,43,93,80,47,30.41,30.29,6,1,10,0.00
2013-10-10,66,56,48,56,50,47,96,83,63,30.29,30.18,4,1,9,0.00
2013-10-11,66,55,46,51,45,41,84,69,44,30.21,30.15,6,1,8,0.00
2013-10-12,66,58,47,58,50,42,86,77,62,30.21,30.14,7,1,10,0.00
2013-10-13,62,60,56,60,57,51,98,91,73,30.29,30.15,9,1,12,0.57
2013-10-14,63,55,48,52,49,46,94,79,60,30.37,30.29,8,2,12,0.01
2013-10-15,62,56,46,58,52,44,96,85,67,30.32,29.92,8,1,11,0.00
2013-10-16,68,62,55,62,58,47,98,86,60,29.92,29.71,9,3,14,0.31
2013-10-17,62,56,53,54,50,48,95,81,64,29.87,29.70,7,1,11,0.33
2013-10-18,59,54,49,50,44,38,93,71,45,29.89,29.70,13,2,18,0.01
2013-10-19,53,48,43,47,44,39,94,87,72,29.87,29.67,11,1,11,0.31
2013-10-20,57,48,40,44,38,32,92,72,41,29.97,29.76,10,1,17,0.00
2013-10-21,59,54,47,50,47,38,96,78,67,29.95,29.76,12,4,17,0.31
2013-10-22,50,45,41,48,34,27,96,67,48,29.85,29.76,12,3,20,0.00
2013-10-23,48,43,38,37,33,24,84,69,44,29.84,29.74,11,1,14,0.00
2013-10-24,49,42,36,37,34,31,84,74,54,30.07,29.81,13,3,17,0.00
2013-10-25,50,43,38,37,34,29,90,73,49,30.22,30.06,8,2,15,0.00
2013-10-26,45,43,40,39,36,28,92,77,52,30.11,29.75,18,5,20,0.47
2013-10-27,49,43,38,36,34,31,86,72,57,30.05,29.82,8,2,13,0.00
2013-10-28,47,43,36,37,27,14,78,55,28,30.45,30.02,14,2,15,0.00
2013-10-29,43,37,31,35,26,22,79,65,46,30.53,30.34,7,1,9,0.00
2013-10-30,50,44,40,43,39,35,94,84,66,30.34,30.10,6,0,9,0.02
2013-10-31,60,52,44,58,50,42,99,94,86,30.10,29.29,12,2,18,0.48
2013-11-1,59,54,49,57,48,32,98,78,62,29.64,29.06,24,5,27,0.09
2013-11-2,48,44,35,45,40,27,92,83,71,30.09,29.60,13,2,14,0.09
2013-11-3,39,33,30,27,23,15,83,66,40,30.58,30.09,7,1,11,0.00
2013-11-4,42,36,29,30,25,21,79,65,52,30.69,30.46,11,2,16,0.00
2013-11-5,51,44,37,41,37,30,87,75,63,30.47,30.32,8,1,9,0.00
2013-11-6,58,52,46,55,45,38,96,78,64,30.32,29.77,15,3,19,0.14
2013-11-7,55,43,38,53,34,29,91,71,52,30.02,29.79,13,4,17,0.02
2013-11-8,43,39,34,32,28,22,83,65,44,30.26,30.00,17,3,19,0.00
2013-11-9,51,44,38,43,35,28,88,72,65,30.25,29.77,11,3,18,0.02
2013-11-10,50,44,39,40,34,30,80,70,57,30.20,29.78,20,5,28,0.01
2013-11-11,44,38,30,37,30,18,89,72,53,30.20,29.93,15,4,22,0.04
2013-11-12,34,29,25,22,16,10,75,60,42,30.47,30.19,17,4,20,0.00
2013-11-13,39,33,24,25,20,17,77,62,42,30.48,30.07,19,5,24,0.00
2013-11-14,49,42,35,33,26,18,60,51,41,30.12,29.99,20,7,23,0.00
2013-11-15,52,46,42,38,31,24,79,54,43,30.12,30.02,14,5,18,0.00
2013-11-16,52,47,40,42,39,35,83,72,64,30.24,29.99,9,2,10,0.00
2013-11-17,55,52,49,54,49,42,96,88,70,29.99,29.26,22,2,31,0.39
2013-11-18,54,44,37,47,33,26,79,65,54,29.96,29.26,32,9,33,0.00
2013-11-19,37,34,28,30,23,20,79,64,52,30.52,29.96,19,4,21,0.00
2013-11-20,38,33,26,30,25,18,80,73,63,30.64,30.46,13,3,18,0.00
2013-11-21,44,40,36,40,33,25,96,74,61,30.46,30.26,9,2,10,0.06
2013-11-22,47,42,30,45,40,23,99,92,71,30.26,30.03,18,2,25,0.25
2013-11-23,34,27,14,27,18,5,89,68,48,30.32,30.08,19,6,24,0.01
2013-11-24,24,18,12,14,8,3,76,66,48,30.50,30.32,17,4,17,0.00
2013-11-25,36,30,20,27,19,10,79,66,55,30.45,30.09,20,8,27,0.00
2013-11-26,35,33,32,34,29,24,96,84,73,30.16,29.87,14,2,19,0.02
2013-11-27,33,29,20,32,24,11,96,80,64,30.01,29.73,15,2,21,0.02
2013-11-28,28,23,19,16,13,10,71,64,50,30.50,30.01,10,3,14,0.00
2013-11-29,29,24,17,18,13,5,72,63,49,30.78,30.50,8,2,10,0.00
2013-11-30,38,32,27,30,22,13,78,67,51,30.76,30.19,13,4,19,0.00
2013-12-1,40,38,36,37,33,29,94,85,71,30.19,29.97,6,1,9,0.07
2013-12-2,38,37,35,36,32,26,93,82,70,29.97,29.90,8,1,10,0.00
2013-12-3,38,34,28,30,25,23,85,70,56,30.04,29.96,6,1,10,0.00
2013-12-4,39,36,34,37,33,29,94,89,78,30.09,29.87,14,4,14,0.07
2013-12-5,59,46,38,51,39,26,96,78,51,30.05,29.70,20,5,25,0.00
2013-12-6,38,33,29,26,21,16,64,60,56,30.31,30.03,11,4,16,0.00
2013-12-7,30,27,22,17,12,8,64,54,43,30.62,30.30,15,5,20,0.00
2013-12-8,31,25,21,22,14,9,71,61,49,30.63,30.22,13,3,22,0.00
2013-12-9,36,32,28,34,26,14,96,79,57,30.22,29.86,21,7,30,0.05
2013-12-10,28,21,18,17,9,4,78,58,46,30.09,29.96,15,6,25,0.00
2013-12-11,25,21,16,15,9,3,74,61,44,30.35,30.09,20,7,25,0.00
2013-12-12,19,16,14,10,6,2,76,64,49,30.38,30.08,20,6,24,0.00
2013-12-13,24,17,10,18,7,-3,81,64,48,30.50,30.06,16,5,19,0.00
2013-12-14,15,10,6,12,4,-6,90,76,49,30.52,29.86,13,4,14,0.00
2013-12-15,24,17,9,21,12,6,89,83,68,29.93,29.76,20,5,29,0.00
2013-12-16,19,13,6,12,4,0,80,67,51,30.24,29.93,11,2,12,0.00
2013-12-17,26,21,11,23,16,4,91,84,72,30.20,29.95,11,2,13,0.00
2013-12-18,32,29,26,24,22,20,89,76,64,30.08,29.97,18,4,21,0.00
2013-12-19,38,34,30,31,26,22,84,72,65,30.07,29.89,14,4,21,0.02
2013-12-20,35,33,31,34,32,30,97,96,86,30.03,29.82,10,2,11,0.31
2013-12-21,33,32,30,32,31,29,97,96,93,29.95,29.77,6,1,10,0.46
2013-12-22,35,30,27,34,29,26,97,94,87,29.98,29.68,0,0,0,0.01
2013-12-23,35,28,21,32,24,17,92,84,71,30.33,29.96,9,3,15,0.06
2013-12-24,21,14,6,17,7,0,84,76,65,30.60,30.29,15,4,17,0.00
2013-12-25,28,15,4,21,9,-4,89,77,70,30.61,30.22,11,2,13,0.00
2013-12-26,31,27,23,25,22,16,93,81,71,30.30,30.10,14,4,21,0.01
2013-12-27,34,28,23,30,22,17,89,78,64,30.31,30.07,13,4,18,0.01
2013-12-28,39,38,33,34,32,30,90,80,74,30.11,29.94,23,4,23,0.03
2013-12-29,42,36,22,34,29,12,90,76,59,29.94,29.64,13,3,19,0.00
2013-12-30,22,16,13,12,3,-10,81,57,28,30.29,29.85,16,4,20,0.00
2013-12-31,20,17,14,17,9,3,89,72,53,30.30,30.04,17,4,25,0.00
2014-1-1,16,12,6,9,0,-13,73,59,40,30.49,30.30,12,4,16,0.00
2014-1-2,6,1,-3,-4,-8,-17,73,64,44,30.44,30.17,17,5,19,0.00